EGLL Weather Reports


Display with metric or nautical units.
time (UTC)temp
F
wind
direction
speed
MPH
gust
MPH
rain 1hr
in
rain 24hr
in
rain mn
in
humidity
%
barometer
mb
20190426120031 59 200 15.0 0.0 0.00 0.00 0.00 54 1010.0
20190426113016 59 200 16.0 0.0 0.00 0.00 0.00 54 1010.0
20190426110029 59 210 14.0 0.0 0.00 0.00 0.00 58 1010.0
20190426103023 57 190 13.0 0.0 0.00 0.00 0.00 62 1010.0
20190426100018 57 190 13.0 0.0 0.00 0.00 0.00 62 1010.0
20190426093018 55 210 12.0 0.0 0.00 0.00 0.00 71 1010.0
20190426090018 55 190 13.0 0.0 0.00 0.00 0.00 71 1010.0
20190426083021 53 210 10.0 0.0 0.00 0.00 0.00 76 1010.0
20190426080019 51 190 10.0 0.0 0.00 0.00 0.00 81 1009.0
20190426073017 51 210 8.0 0.0 0.00 0.00 0.00 87 1009.0
20190426070019 50 180 8.0 0.0 0.00 0.00 0.00 87 1009.0
20190426063020 48 170 7.0 0.0 0.00 0.00 0.00 87 1009.0
20190426060019 46 150 7.0 0.0 0.00 0.00 0.00 93 1008.0
20190426053018 44 0 3.0 0.0 0.00 0.00 0.00 93 1008.0
20190426050021 44 0 3.0 0.0 0.00 0.00 0.00 93 1008.0
20190426043027 44 0 2.0 0.0 0.00 0.00 0.00 93 1008.0
20190426033022 44 170 1.0 0.0 0.00 0.00 0.00 93 1007.0
20190426030031 44 150 2.0 0.0 0.00 0.00 0.00 93 1007.0
20190426023027 46 150 2.0 0.0 0.00 0.00 0.00 87 1007.0
20190426013036 46 160 5.0 0.0 0.00 0.00 0.00 93 1006.0
20190426010050 46 190 3.0 0.0 0.00 0.00 0.00 93 1006.0
20190426003047 46 180 5.0 0.0 0.00 0.00 0.00 93 1006.0
20190426000019 48 170 6.0 0.0 0.00 0.00 0.00 87 1006.0
20190425233028 48 190 8.0 0.0 0.00 0.00 0.00 87 1006.0
20190425230024 48 180 8.0 0.0 0.00 0.00 0.00 87 1006.0
20190425223018 50 170 8.0 0.0 0.00 0.00 0.00 81 1005.0
20190425220018 50 170 10.0 0.0 0.00 0.00 0.00 81 1005.0
20190425213032 51 170 10.0 0.0 0.00 0.00 0.00 76 1005.0
20190425210023 51 160 9.0 0.0 0.00 0.00 0.00 76 1004.0
20190425203022 51 160 10.0 0.0 0.00 0.00 0.00 71 1004.0
20190425200020 51 200 12.0 0.0 0.00 0.00 0.00 71 1003.0
20190425193021 53 180 12.0 0.0 0.00 0.00 0.00 66 1003.0
20190425190016 53 180 13.0 0.0 0.00 0.00 0.00 62 1003.0
20190425183021 55 190 13.0 0.0 0.00 0.00 0.00 58 1002.0
20190425180019 55 190 16.0 0.0 0.00 0.00 0.00 58 1002.0
20190425173021 55 190 16.0 0.0 0.00 0.00 0.00 58 1002.0
20190425170026 57 180 15.0 0.0 0.00 0.00 0.00 50 1001.0
20190425163016 59 200 15.0 0.0 0.00 0.00 0.00 47 1001.0
20190425160023 59 210 17.0 0.0 0.00 0.00 0.00 47 1000.0
20190425143016 59 210 18.0 0.0 0.00 0.00 0.00 47 1000.0
20190425140016 60 190 20.0 0.0 0.00 0.00 0.00 47 999.0
20190425133018 60 210 17.0 0.0 0.00 0.00 0.00 47 999.0
20190425130018 59 190 21.0 0.0 0.00 0.00 0.00 51 999.0